軌道要素
Epoch 2015 June 27.0 TT = JDT 2457200.5
T 2015 June 17.32326 TT MPCW
q 3.4268068 (2000.0) P Q
n 0.03217086 Peri. 225.64095 -0.93300827 -0.30062689
a 9.7910128 Node 295.93653 +0.35952003 -0.80242683
e 0.6500049 Incl. 12.70537 -0.01552129 -0.51549458
P 30.64
From 1005 observations 2014 Nov. 3-2016 Sept. 28, mean residual 0".4.
|